,,Stat6,,Stat2,,Stat8,,Stat9,,Stat10,,Wind1,,Wind1,
time,status,PA1M_AVG,status,PR1M_SUM,status,RH1M_AVG,status,SR1M_AVG,status,TA1M_AVG,status,W1dAve1m,status,W1sAve1m,
2005-05-07, 00:00:00,VALID,917.268,VALID,0,VALID,100,VALID,-0.0169808,VALID,19.8784,VALID,7,VALID,1.13597,
2005-05-07, 00:01:00,VALID,917.262,VALID,0,VALID,100,VALID,-0.0169808,VALID,19.8682,VALID,347,VALID,0.925595,
2005-05-07, 00:02:00,VALID,917.262,VALID,0,VALID,100,VALID,-0.0169808,VALID,19.8779,VALID,355,VALID,0.744048,
2005-05-07, 00:03:00,VALID,917.254,VALID,0,VALID,100,VALID,-0.0339617,VALID,19.9002,VALID,358,VALID,1.07527,
2005-05-07, 00:04:00,VALID,917.24,VALID,0,VALID,100,VALID,-0.0679233,VALID,19.9104,VALID,3,VALID,0.707403,
2005-05-07, 00:05:00,VALID,917.252,VALID,0,VALID,100,VALID,-0.0509425,VALID,19.9141,VALID,5,VALID,0.656994,
2005-05-07, 00:06:00,VALID,917.233,VALID,0,VALID,100,VALID,-0.0679233,VALID,19.9015,VALID,9,VALID,1.25934,
2005-05-07, 00:07:00,VALID,917.25,VALID,0,VALID,100,VALID,-0.101885,VALID,19.9171,VALID,360,VALID,0.642756,
2005-05-07, 00:08:00,VALID,917.236,VALID,0,VALID,100,VALID,-0.101885,VALID,19.93,VALID,341,VALID,0.938867,
2005-05-07, 00:09:00,VALID,917.241,VALID,0,VALID,100,VALID,-0.0509425,VALID,19.9335,VALID,360,VALID,0.770952,
2005-05-07, 00:10:00,VALID,917.243,VALID,0,VALID,100,VALID,-0.0169808,VALID,19.9526,VALID,360,VALID,0.643821,
2005-05-07, 00:11:00,VALID,917.238,VALID,0,VALID,100,VALID,-0.0679233,VALID,19.9556,VALID,5,VALID,0.993521,
2005-05-07, 00:12:00,VALID,917.234,VALID,0,VALID,100,VALID,-0.0509425,VALID,19.9526,VALID,350,VALID,0.827237,
2005-05-07, 00:13:00,VALID,917.232,VALID,0,VALID,100,VALID,-0.0339617,VALID,19.9492,VALID,8,VALID,0.774346,
2005-05-07, 00:14:00,VALID,917.229,VALID,0,VALID,100,VALID,-0.0509425,VALID,19.968,VALID,13,VALID,0.501817,
2005-05-07, 00:15:00,VALID,917.223,VALID,0,VALID,100,VALID,-0.0509425,VALID,19.9723,VALID,357,VALID,0.568677,
2005-05-07, 00:16:00,VALID,917.201,VALID,0,VALID,100,VALID,-0.0679233,VALID,19.972,VALID,346,VALID,0.990282,
2005-05-07, 00:17:00,VALID,917.183,VALID,0,VALID,100,VALID,-0.0169808,VALID,19.9809,VALID,345,VALID,0.525,
2005-05-07, 00:18:00,VALID,917.176,VALID,0,VALID,100,VALID,-0.0679233,VALID,19.9936,VALID,342,VALID,1.12984,
2005-05-07, 00:19:00,VALID,917.174,VALID,0,VALID,100,VALID,-0.0339617,VALID,19.9909,VALID,342,VALID,0.647135,
2005-05-07, 00:20:00,VALID,917.165,VALID,0,VALID,100,VALID,-0.0509425,VALID,19.9978,VALID,357,VALID,0.796113,
2005-05-07, 00:21:00,VALID,917.163,VALID,0,VALID,100,VALID,0.0679233,VALID,20.0219,VALID,22,VALID,0.738653,
2005-05-07, 00:22:00,VALID,917.17,VALID,0,VALID,100,VALID,0.0679233,VALID,20.012,VALID,353,VALID,0.947218,
2005-05-07, 00:23:00,VALID,917.165,VALID,0,VALID,100,VALID,0.0849042,VALID,19.9953,VALID,14,VALID,1.04459,
2005-05-07, 00:24:00,VALID,917.173,VALID,0,VALID,100,VALID,0.0509425,VALID,20.0053,VALID,13,VALID,0.557015,
2005-05-07, 00:25:00,VALID,917.176,VALID,0,VALID,100,VALID,0.0509425,VALID,19.9993,VALID,360,VALID,0.752907,
2005-05-07, 00:26:00,VALID,917.177,VALID,0,VALID,100,VALID,0.0679233,VALID,20.0063,VALID,7,VALID,0.814977,
2005-05-07, 00:27:00,VALID,917.17,VALID,0,VALID,100,VALID,0.0169808,VALID,19.9929,VALID,355,VALID,0.625174,
2005-05-07, 00:28:00,VALID,917.167,VALID,0,VALID,100,VALID,0.0849042,VALID,20.009,VALID,354,VALID,0.556286,
2005-05-07, 00:29:00,VALID,917.168,VALID,0,VALID,100,VALID,0.0169808,VALID,20.0155,VALID,4,VALID,0.717115,
2005-05-07, 00:30:00,VALID,917.171,VALID,0,VALID,100,VALID,0.0339617,VALID,19.9956,VALID,360,VALID,1.00949,
2005-05-07, 00:31:00,VALID,917.167,VALID,0,VALID,100,VALID,0.0339617,VALID,20.0028,VALID,17,VALID,0.844599,
2005-05-07, 00:32:00,VALID,917.158,VALID,0,VALID,100,VALID,0.0339617,VALID,20.009,VALID,355,VALID,1.01653,
2005-05-07, 00:33:00,VALID,917.148,VALID,0,VALID,100,VALID,0.0339617,VALID,20.0155,VALID,346,VALID,1.00091,
2005-05-07, 00:34:00,VALID,917.144,VALID,0,VALID,100,VALID,0.0169808,VALID,20.0155,VALID,332,VALID,0.842035,
2005-05-07, 00:35:00,VALID,917.131,VALID,0,VALID,100,VALID,0.0169808,VALID,20.0284,VALID,343,VALID,0.746185,
2005-05-07, 00:36:00,VALID,917.096,VALID,0,VALID,100,VALID,0,VALID,20.0184,VALID,8,VALID,1.31734,
2005-05-07, 00:37:00,VALID,917.083,VALID,0,VALID,100,VALID,0,VALID,20.0545,VALID,4,VALID,1.24182,
2005-05-07, 00:38:00,VALID,917.062,VALID,0,VALID,100,VALID,0.0169808,VALID,20.0776,VALID,360,VALID,1.21319,
2005-05-07, 00:39:00,VALID,917.07,VALID,0,VALID,100,VALID,0,VALID,20.0771,VALID,14,VALID,1.01895,
2005-05-07, 00:40:00,VALID,917.054,VALID,0,VALID,100,VALID,0.0169808,VALID,20.0803,VALID,5,VALID,1.03001,
2005-05-07, 00:41:00,VALID,917.046,VALID,0,VALID,100,VALID,0.0509425,VALID,20.0639,VALID,360,VALID,1.19238,
2005-05-07, 00:42:00,VALID,917.05,VALID,0,VALID,100,VALID,0.0339617,VALID,20.0567,VALID,355,VALID,1.11681,
2005-05-07, 00:43:00,VALID,917.053,VALID,0,VALID,100,VALID,0,VALID,20.0676,VALID,353,VALID,1.02308,
2005-05-07, 00:44:00,VALID,917.064,VALID,0,VALID,100,VALID,0.0169808,VALID,20.0676,VALID,4,VALID,0.968229,
2005-05-07, 00:45:00,VALID,917.071,VALID,0,VALID,100,VALID,0.0339617,VALID,20.0542,VALID,359,VALID,1.09375,
2005-05-07, 00:46:00,VALID,917.062,VALID,0,VALID,100,VALID,0.0169808,VALID,20.0773,VALID,1,VALID,0.912642,
2005-05-07, 00:47:00,VALID,917.085,VALID,0,VALID,100,VALID,0.0339617,VALID,20.0868,VALID,4,VALID,1.03001,
2005-05-07, 00:48:00,VALID,917.093,VALID,0,VALID,100,VALID,0.0339617,VALID,20.0731,VALID,330,VALID,0.835938,
2005-05-07, 00:49:00,VALID,917.098,VALID,0,VALID,100,VALID,0.0169808,VALID,20.0763,VALID,355,VALID,0.997768,
2005-05-07, 00:50:00,VALID,917.1,VALID,0,VALID,100,VALID,0,VALID,20.0801,VALID,351,VALID,0.808681,
2005-05-07, 00:51:00,VALID,917.101,VALID,0,VALID,100,VALID,-0.0679233,VALID,20.098,VALID,330,VALID,0.714844,
2005-05-07, 00:52:00,VALID,917.112,VALID,0,VALID,100,VALID,-0.0849042,VALID,20.084,VALID,351,VALID,0.844815,
2005-05-07, 00:53:00,VALID,917.107,VALID,0,VALID,100,VALID,-0.0679233,VALID,20.0947,VALID,4,VALID,1.18711,
2005-05-07, 00:54:00,VALID,917.111,VALID,0,VALID,100,VALID,-0.0849042,VALID,20.0913,VALID,347,VALID,0.801781,
2005-05-07, 00:55:00,VALID,917.106,VALID,0,VALID,100,VALID,-0.0679233,VALID,20.1104,VALID,360,VALID,0.804348,
2005-05-07, 00:56:00,VALID,917.121,VALID,0,VALID,100,VALID,-0.0849042,VALID,20.1136,VALID,9,VALID,0.927557,
2005-05-07, 00:57:00,VALID,917.111,VALID,0,VALID,100,VALID,-0.0679233,VALID,20.1004,VALID,338,VALID,0.988917,
2005-05-07, 00:58:00,VALID,917.106,VALID,0,VALID,100,VALID,-0.101885,VALID,20.1139,VALID,319,VALID,0.916788,
2005-05-07, 00:59:00,VALID,917.102,VALID,0,VALID,100,VALID,-0.101885,VALID,20.1206,VALID,336,VALID,0.642299,
2005-05-07, 01:00:00,VALID,917.085,VALID,0,VALID,100,VALID,-0.101885,VALID,20.1303,VALID,339,VALID,0.734933,
2005-05-07, 01:01:00,VALID,917.086,VALID,0,VALID,100,VALID,-0.101885,VALID,20.1362,VALID,358,VALID,0.393466,
2005-05-07, 01:02:00,VALID,917.084,VALID,0,VALID,100,VALID,-0.0849042,VALID,20.1432,VALID,351,VALID,0.748183,
2005-05-07, 01:03:00,VALID,917.081,VALID,0,VALID,100,VALID,-0.0849042,VALID,20.1467,VALID,351,VALID,0.732701,
2005-05-07, 01:04:00,VALID,917.076,VALID,0,VALID,100,VALID,-0.101885,VALID,20.1531,VALID,2,VALID,0.709239,
2005-05-07, 01:05:00,VALID,917.076,VALID,0,VALID,100,VALID,-0.101885,VALID,20.1494,VALID,358,VALID,0.965116,
2005-05-07, 01:06:00,VALID,917.07,VALID,0,VALID,100,VALID,-0.0169808,VALID,20.1094,VALID,358,VALID,1.02989,
2005-05-07, 01:07:00,VALID,917.067,VALID,0,VALID,100,VALID,0,VALID,20.1129,VALID,3,VALID,1.04821,
2005-05-07, 01:08:00,VALID,917.071,VALID,0,VALID,100,VALID,0,VALID,20.1126,VALID,358,VALID,1.15305,
2005-05-07, 01:09:00,VALID,917.084,VALID,0,VALID,100,VALID,-0.0169808,VALID,20.1059,VALID,353,VALID,1.08631,
2005-05-07, 01:10:00,VALID,917.079,VALID,0,VALID,100,VALID,0,VALID,20.1193,VALID,10,VALID,0.97619,
2005-05-07, 01:11:00,VALID,917.076,VALID,0,VALID,100,VALID,0,VALID,20.1387,VALID,10,VALID,0.621185,
2005-05-07, 01:12:00,VALID,917.06,VALID,0,VALID,100,VALID,-0.0169808,VALID,20.1389,VALID,360,VALID,0.73402,
2005-05-07, 01:13:00,VALID,917.03,VALID,0,VALID,100,VALID,-0.0169808,VALID,20.1191,VALID,5,VALID,0.988459,
2005-05-07, 01:14:00,VALID,917.035,VALID,0,VALID,100,VALID,0,VALID,20.1225,VALID,19,VALID,0.895833,
2005-05-07, 01:15:00,VALID,917.012,VALID,0,VALID,100,VALID,0,VALID,20.1158,VALID,11,VALID,0.912729,
2005-05-07, 01:16:00,VALID,917.021,VALID,0,VALID,100,VALID,-0.0339617,VALID,20.1096,VALID,357,VALID,0.77326,
2005-05-07, 01:17:00,VALID,917.017,VALID,0,VALID,100,VALID,0,VALID,20.1126,VALID,358,VALID,0.321701,
2005-05-07, 01:18:00,VALID,917.006,VALID,0,VALID,100,VALID,0,VALID,20.1129,VALID,357,VALID,0.612614,
2005-05-07, 01:19:00,VALID,917,VALID,0,VALID,100,VALID,0,VALID,20.0967,VALID,349,VALID,0.829013,
2005-05-07, 01:20:00,VALID,917.008,VALID,0,VALID,100,VALID,0,VALID,20.09,VALID,1,VALID,0.713844,
2005-05-07, 01:21:00,VALID,917.014,VALID,0,VALID,100,VALID,0,VALID,20.0895,VALID,11,VALID,0.766555,
2005-05-07, 01:22:00,VALID,917.001,VALID,0,VALID,100,VALID,-0.0169808,VALID,20.093,VALID,8,VALID,1.09736,
2005-05-07, 01:23:00,VALID,916.999,VALID,0,VALID,100,VALID,0,VALID,20.0863,VALID,358,VALID,0.923971,
2005-05-07, 01:24:00,VALID,916.977,VALID,0,VALID,100,VALID,0,VALID,20.0868,VALID,354,VALID,0.767624,
2005-05-07, 01:25:00,VALID,916.974,VALID,0,VALID,100,VALID,0,VALID,20.0833,VALID,359,VALID,0.820313,
2005-05-07, 01:26:00,VALID,916.965,VALID,0,VALID,100,VALID,0,VALID,20.0738,VALID,349,VALID,0.518403,
2005-05-07, 01:27:00,VALID,916.957,VALID,0,VALID,100,VALID,0,VALID,20.0674,VALID,349,VALID,0.352679,
2005-05-07, 01:28:00,VALID,916.944,VALID,0,VALID,100,VALID,-0.0169808,VALID,20.0639,VALID,347,VALID,0.544876,
2005-05-07, 01:29:00,VALID,916.928,VALID,0,VALID,100,VALID,-0.0169808,VALID,20.0512,VALID,321,VALID,0.625572,
2005-05-07, 01:30:00,VALID,916.916,VALID,0,VALID,100,VALID,0.0169808,VALID,20.051,VALID,307,VALID,0.420058,
2005-05-07, 01:31:00,VALID,916.895,VALID,0,VALID,100,VALID,-0.0169808,VALID,20.0545,VALID,299,VALID,0.0046875,
2005-05-07, 01:32:00,VALID,916.87,VALID,0,VALID,100,VALID,0,VALID,20.0614,VALID,299,VALID,0.145089,
2005-05-07, 01:33:00,VALID,916.858,VALID,0,VALID,100,VALID,0,VALID,20.0617,VALID,299,VALID,0.000177557,
2005-05-07, 01:34:00,VALID,916.854,VALID,0,VALID,100,VALID,-0.0169808,VALID,20.052,VALID,332,VALID,0.426491,
2005-05-07, 01:35:00,VALID,916.837,VALID,0,VALID,100,VALID,-0.0169808,VALID,20.0388,VALID,345,VALID,0.356445,
2005-05-07, 01:36:00,VALID,916.826,VALID,0,VALID,100,VALID,-0.0169808,VALID,20.0125,VALID,348,VALID,0.329078,
2005-05-07, 01:37:00,VALID,916.815,VALID,0,VALID,100,VALID,0,VALID,20.0098,VALID,345,VALID,0.483994,
2005-05-07, 01:38:00,VALID,916.797,VALID,0,VALID,100,VALID,0,VALID,20.0103,VALID,338,VALID,0.460565,
2005-05-07, 01:39:00,VALID,916.774,VALID,0,VALID,100,VALID,0,VALID,19.9839,VALID,348,VALID,0.574405,
2005-05-07, 01:40:00,VALID,916.748,VALID,0,VALID,100,VALID,0,VALID,19.9775,VALID,12,VALID,1.3131,
2005-05-07, 01:41:00,VALID,916.742,VALID,0,VALID,100,VALID,-0.0169808,VALID,20.0006,VALID,13,VALID,0.940044,
2005-05-07, 01:42:00,VALID,916.72,VALID,0,VALID,100,VALID,-0.0169808,VALID,19.9934,VALID,25,VALID,0.755766,
2005-05-07, 01:43:00,VALID,916.706,VALID,0,VALID,100,VALID,0,VALID,19.9837,VALID,17,VALID,0.716025,
2005-05-07, 01:44:00,VALID,916.685,VALID,0,VALID,100,VALID,0,VALID,19.9901,VALID,13,VALID,0.705543,
2005-05-07, 01:45:00,VALID,916.675,VALID,0,VALID,100,VALID,0,VALID,19.9775,VALID,12,VALID,1.0783,
2005-05-07, 01:46:00,VALID,916.658,VALID,0,VALID,100,VALID,0.0169808,VALID,20.0033,VALID,16,VALID,0.96441,
2005-05-07, 01:47:00,VALID,916.644,VALID,0,VALID,100,VALID,-0.0169808,VALID,20.0065,VALID,5,VALID,0.98971,
2005-05-07, 01:48:00,VALID,916.633,VALID,0,VALID,100,VALID,0,VALID,19.9963,VALID,11,VALID,0.758557,
2005-05-07, 01:49:00,VALID,916.629,VALID,0,VALID,100,VALID,0,VALID,19.9963,VALID,26,VALID,0.740371,
2005-05-07, 01:50:00,VALID,916.621,VALID,0,VALID,100,VALID,0,VALID,19.9906,VALID,26,VALID,0.560938,
2005-05-07, 01:51:00,VALID,916.617,VALID,0,VALID,100,VALID,0,VALID,19.9804,VALID,24,VALID,0.440225,
2005-05-07, 01:52:00,VALID,916.625,VALID,0,VALID,100,VALID,0,VALID,19.964,VALID,4,VALID,0.651163,
2005-05-07, 01:53:00,VALID,916.616,VALID,0,VALID,100,VALID,-0.0169808,VALID,19.9546,VALID,4,VALID,0.211119,
2005-05-07, 01:54:00,VALID,916.615,VALID,0,VALID,100,VALID,0,VALID,19.9581,VALID,4,VALID,0.292225,
2005-05-07, 01:55:00,VALID,916.62,VALID,0,VALID,100,VALID,0,VALID,19.9519,VALID,4,VALID,0.374219,
2005-05-07, 01:56:00,VALID,916.597,VALID,0,VALID,100,VALID,0,VALID,19.9452,VALID,4,VALID,0.0432413,
2005-05-07, 01:57:00,VALID,916.581,VALID,0,VALID,100,VALID,0.0169808,VALID,19.9449,VALID,4,VALID,0.126674,
2005-05-07, 01:58:00,VALID,916.57,VALID,0,VALID,100,VALID,0.0169808,VALID,19.9422,VALID,4,VALID,0.171484,
2005-05-07, 01:59:00,VALID,916.557,VALID,0,VALID,100,VALID,0,VALID,19.9317,VALID,4,VALID,0.318132,
2005-05-07, 02:00:00,VALID,916.55,VALID,0,VALID,100,VALID,0,VALID,19.9295,VALID,8,VALID,0.471726,
2005-05-07, 02:01:00,VALID,916.533,VALID,0,VALID,100,VALID,-0.0169808,VALID,19.9062,VALID,358,VALID,0.713796,
2005-05-07, 02:02:00,VALID,916.522,VALID,0,VALID,100,VALID,0,VALID,19.9161,VALID,356,VALID,0.601181,
2005-05-07, 02:03:00,VALID,916.511,VALID,0,VALID,100,VALID,-0.0169808,VALID,19.9091,VALID,356,VALID,0.714648,
2005-05-07, 02:04:00,VALID,916.516,VALID,0,VALID,100,VALID,0,VALID,19.8997,VALID,357,VALID,0.779102,
2005-05-07, 02:05:00,VALID,916.498,VALID,0,VALID,100,VALID,0,VALID,19.9067,VALID,13,VALID,0.787729,
2005-05-07, 02:06:00,VALID,916.486,VALID,0,VALID,100,VALID,-0.0679233,VALID,19.9134,VALID,18,VALID,0.322129,
2005-05-07, 02:07:00,VALID,916.475,VALID,0,VALID,100,VALID,-0.101885,VALID,19.9037,VALID,16,VALID,0.409108,
2005-05-07, 02:08:00,VALID,916.454,VALID,0,VALID,100,VALID,-0.0849042,VALID,19.9072,VALID,13,VALID,0.413517,
2005-05-07, 02:09:00,VALID,916.43,VALID,0,VALID,100,VALID,-0.0679233,VALID,19.9106,VALID,6,VALID,0.507102,
2005-05-07, 02:10:00,VALID,916.414,VALID,0,VALID,100,VALID,-0.101885,VALID,19.9101,VALID,1,VALID,0.468205,
2005-05-07, 02:11:00,VALID,916.377,VALID,0,VALID,100,VALID,-0.0339617,VALID,19.9203,VALID,1,VALID,0.491365,
2005-05-07, 02:12:00,VALID,916.358,VALID,0,VALID,100,VALID,-0.0679233,VALID,19.9069,VALID,1,VALID,0.514382,
2005-05-07, 02:13:00,VALID,916.339,VALID,0,VALID,100,VALID,-0.0509425,VALID,19.9104,VALID,1,VALID,0.370536,
2005-05-07, 02:14:00,VALID,916.326,VALID,0,VALID,100,VALID,-0.0679233,VALID,19.9069,VALID,1,VALID,0.324855,
2005-05-07, 02:15:00,VALID,916.31,VALID,0,VALID,100,VALID,-0.0679233,VALID,19.9,VALID,1,VALID,0.619673,
2005-05-07, 02:16:00,VALID,916.302,VALID,0,VALID,100,VALID,-0.0509425,VALID,19.9136,VALID,1,VALID,0.451791,
2005-05-07, 02:17:00,VALID,916.272,VALID,0,VALID,100,VALID,-0.0339617,VALID,19.9134,VALID,1,VALID,0.316493,
2005-05-07, 02:18:00,VALID,916.256,VALID,0,VALID,100,VALID,-0.0679233,VALID,19.9034,VALID,1,VALID,0.424162,
2005-05-07, 02:19:00,VALID,916.244,VALID,0,VALID,100,VALID,-0.0849042,VALID,19.8972,VALID,1,VALID,0.503125,
2005-05-07, 02:20:00,VALID,916.219,VALID,0,VALID,100,VALID,-0.0849042,VALID,19.8848,VALID,1,VALID,0.513338,
2005-05-07, 02:21:00,VALID,916.209,VALID,0,VALID,100,VALID,0.0509425,VALID,19.8796,VALID,1,VALID,0.543636,
2005-05-07, 02:22:00,VALID,916.214,VALID,0,VALID,100,VALID,0,VALID,19.8605,VALID,1,VALID,0.540587,
2005-05-07, 02:23:00,VALID,916.188,VALID,0,VALID,100,VALID,0.0509425,VALID,19.8443,VALID,19,VALID,0.77763,
2005-05-07, 02:24:00,VALID,916.18,VALID,0,VALID,100,VALID,0.0679233,VALID,19.8408,VALID,19,VALID,0.782366,
2005-05-07, 02:25:00,VALID,916.154,VALID,0,VALID,100,VALID,0.0169808,VALID,19.8478,VALID,10,VALID,0.519792,
2005-05-07, 02:26:00,VALID,916.141,VALID,0,VALID,100,VALID,0.0339617,VALID,19.8572,VALID,5,VALID,0.576705,
2005-05-07, 02:27:00,VALID,916.123,VALID,0,VALID,100,VALID,0.0509425,VALID,19.857,VALID,359,VALID,0.670922,
2005-05-07, 02:28:00,VALID,916.109,VALID,0,VALID,100,VALID,0.0509425,VALID,19.8565,VALID,356,VALID,0.880394,
2005-05-07, 02:29:00,VALID,916.084,VALID,0,VALID,100,VALID,0.0169808,VALID,19.8669,VALID,358,VALID,0.878815,
2005-05-07, 02:30:00,VALID,916.067,VALID,0,VALID,100,VALID,0.0169808,VALID,19.8771,VALID,5,VALID,1.00479,
2005-05-07, 02:31:00,VALID,916.041,VALID,0,VALID,100,VALID,0.0679233,VALID,19.8639,VALID,16,VALID,0.911058,
2005-05-07, 02:32:00,VALID,916.019,VALID,0,VALID,100,VALID,0.0509425,VALID,19.8542,VALID,23,VALID,0.926417,
2005-05-07, 02:33:00,VALID,916.005,VALID,0,VALID,100,VALID,0.0169808,VALID,19.8612,VALID,19,VALID,0.87035,
2005-05-07, 02:34:00,VALID,915.995,VALID,0,VALID,100,VALID,-0.0169808,VALID,19.8475,VALID,19,VALID,0.706499,
2005-05-07, 02:35:00,VALID,915.976,VALID,0,VALID,100,VALID,0.0339617,VALID,19.8373,VALID,19,VALID,0.360156,
2005-05-07, 02:36:00,VALID,915.969,VALID,0,VALID,100,VALID,0.0509425,VALID,19.8311,VALID,19,VALID,0.381324,
2005-05-07, 02:37:00,VALID,915.958,VALID,0,VALID,100,VALID,0,VALID,19.8381,VALID,18,VALID,0.414444,
2005-05-07, 02:38:00,VALID,915.966,VALID,0,VALID,100,VALID,0.0339617,VALID,19.8446,VALID,19,VALID,0.557413,
2005-05-07, 02:39:00,VALID,915.972,VALID,0,VALID,100,VALID,0.0169808,VALID,19.8443,VALID,8,VALID,0.30545,
2005-05-07, 02:40:00,VALID,915.974,VALID,0,VALID,100,VALID,0.0339617,VALID,19.854,VALID,8,VALID,0.138765,
2005-05-07, 02:41:00,VALID,915.982,VALID,0,VALID,100,VALID,0.0169808,VALID,19.8408,VALID,8,VALID,0.0907012,
2005-05-07, 02:42:00,VALID,915.993,VALID,0,VALID,100,VALID,0.0339617,VALID,19.8349,VALID,8,VALID,0.0824855,
2005-05-07, 02:43:00,VALID,915.989,VALID,0,VALID,100,VALID,0.0169808,VALID,19.822,VALID,8,VALID,0,
2005-05-07, 02:44:00,VALID,915.988,VALID,0,VALID,100,VALID,0,VALID,19.8187,VALID,8,VALID,0,
2005-05-07, 02:45:00,VALID,915.986,VALID,0,VALID,100,VALID,0.0679233,VALID,19.8123,VALID,8,VALID,0,
2005-05-07, 02:46:00,VALID,915.978,VALID,0,VALID,100,VALID,0,VALID,19.7991,VALID,8,VALID,0,
2005-05-07, 02:47:00,VALID,915.968,VALID,0,VALID,100,VALID,0,VALID,19.7964,VALID,8,VALID,0,
2005-05-07, 02:48:00,VALID,915.951,VALID,0,VALID,100,VALID,0.0169808,VALID,19.7926,VALID,8,VALID,0,
2005-05-07, 02:49:00,VALID,915.952,VALID,0,VALID,100,VALID,0,VALID,19.7991,VALID,8,VALID,0.238104,
2005-05-07, 02:50:00,VALID,915.948,VALID,0,VALID,100,VALID,0.0169808,VALID,19.7954,VALID,8,VALID,0.216264,
2005-05-07, 02:51:00,VALID,915.923,VALID,0,VALID,100,VALID,0.0169808,VALID,19.7996,VALID,8,VALID,0.421875,
2005-05-07, 02:52:00,VALID,915.916,VALID,0,VALID,100,VALID,0.0679233,VALID,19.809,VALID,8,VALID,0.377907,
2005-05-07, 02:53:00,VALID,915.896,VALID,0,VALID,100,VALID,0.0339617,VALID,19.8152,VALID,8,VALID,0.136265,
2005-05-07, 02:54:00,VALID,915.892,VALID,0,VALID,100,VALID,0,VALID,19.8088,VALID,8,VALID,0.265253,
2005-05-07, 02:55:00,VALID,915.879,VALID,0,VALID,100,VALID,0,VALID,19.8282,VALID,8,VALID,0.273785,
2005-05-07, 02:56:00,VALID,915.864,VALID,0,VALID,100,VALID,0.0169808,VALID,19.8319,VALID,8,VALID,0.332127,
2005-05-07, 02:57:00,VALID,915.846,VALID,0,VALID,100,VALID,0.0169808,VALID,19.8381,VALID,8,VALID,0.232851,
2005-05-07, 02:58:00,VALID,915.823,VALID,0,VALID,100,VALID,0.0339617,VALID,19.8411,VALID,8,VALID,0.0221037,
2005-05-07, 02:59:00,VALID,915.805,VALID,0,VALID,100,VALID,0.0339617,VALID,19.8314,VALID,8,VALID,0.228601,
2005-05-07, 03:00:00,VALID,915.789,VALID,0,VALID,100,VALID,0,VALID,19.8383,VALID,8,VALID,0.131541,
2005-05-07, 03:01:00,VALID,915.776,VALID,0,VALID,100,VALID,0,VALID,19.8316,VALID,8,VALID,0.485547,
2005-05-07, 03:02:00,VALID,915.736,VALID,0,VALID,100,VALID,0.0169808,VALID,19.8187,VALID,8,VALID,0.262091,
2005-05-07, 03:03:00,VALID,915.712,VALID,0,VALID,100,VALID,0,VALID,19.7961,VALID,8,VALID,0.549361,
2005-05-07, 03:04:00,VALID,915.688,VALID,0,VALID,100,VALID,0,VALID,19.7899,VALID,8,VALID,0.49314,
2005-05-07, 03:05:00,VALID,915.682,VALID,0,VALID,100,VALID,0.0169808,VALID,19.77,VALID,8,VALID,0.515439,
2005-05-07, 03:06:00,VALID,915.66,VALID,0,VALID,100,VALID,-0.0169808,VALID,19.7683,VALID,8,VALID,0.497456,
2005-05-07, 03:07:00,VALID,915.669,VALID,0,VALID,100,VALID,-0.0169808,VALID,19.7584,VALID,8,VALID,0.563565,
2005-05-07, 03:08:00,VALID,915.65,VALID,0,VALID,100,VALID,-0.101885,VALID,19.7621,VALID,8,VALID,0.634415,
2005-05-07, 03:09:00,VALID,915.637,VALID,0,VALID,100,VALID,-0.0339617,VALID,19.7589,VALID,11,VALID,0.807292,
2005-05-07, 03:10:00,VALID,915.622,VALID,0,VALID,100,VALID,-0.0509425,VALID,19.7683,VALID,26,VALID,0.834985,
2005-05-07, 03:11:00,VALID,915.613,VALID,0,VALID,100,VALID,0,VALID,19.7847,VALID,41,VALID,0.883594,
2005-05-07, 03:12:00,VALID,915.606,VALID,0,VALID,100,VALID,-0.0509425,VALID,19.7713,VALID,46,VALID,0.882102,
2005-05-07, 03:13:00,VALID,915.605,VALID,0,VALID,100,VALID,-0.0679233,VALID,19.775,VALID,50,VALID,0.834896,
2005-05-07, 03:14:00,VALID,915.59,VALID,0,VALID,100,VALID,-0.0509425,VALID,19.7618,VALID,50,VALID,0.698171,
2005-05-07, 03:15:00,VALID,915.6,VALID,0,VALID,100,VALID,-0.0169808,VALID,19.7355,VALID,50,VALID,0.71657,
2005-05-07, 03:16:00,VALID,915.587,VALID,0,VALID,100,VALID,-0.0509425,VALID,19.7328,VALID,50,VALID,0.724702,
2005-05-07, 03:17:00,VALID,915.569,VALID,0,VALID,100,VALID,-0.0339617,VALID,19.7263,VALID,50,VALID,0.618403,
2005-05-07, 03:18:00,VALID,915.565,VALID,0,VALID,100,VALID,-0.0509425,VALID,19.7266,VALID,50,VALID,0.501635,
2005-05-07, 03:19:00,VALID,915.55,VALID,0,VALID,100,VALID,-0.0509425,VALID,19.7196,VALID,50,VALID,0.625744,
2005-05-07, 03:20:00,VALID,915.535,VALID,0,VALID,100,VALID,-0.0679233,VALID,19.7201,VALID,50,VALID,0.528764,
2005-05-07, 03:21:00,VALID,915.539,VALID,0,VALID,100,VALID,-0.101885,VALID,19.7171,VALID,50,VALID,0.230841,
2005-05-07, 03:22:00,VALID,915.516,VALID,0,VALID,100,VALID,-0.0679233,VALID,19.7072,VALID,50,VALID,0.551482,
2005-05-07, 03:23:00,VALID,915.507,VALID,0,VALID,100,VALID,-0.0509425,VALID,19.7107,VALID,50,VALID,0.670603,
2005-05-07, 03:24:00,VALID,915.485,VALID,0,VALID,100,VALID,-0.0509425,VALID,19.7171,VALID,50,VALID,0.527876,
2005-05-07, 03:25:00,VALID,915.484,VALID,0,VALID,100,VALID,-0.0849042,VALID,19.7204,VALID,50,VALID,0.455793,
2005-05-07, 03:26:00,VALID,915.471,VALID,0,VALID,100,VALID,-0.0679233,VALID,19.7295,VALID,50,VALID,0.347565,
2005-05-07, 03:27:00,VALID,915.454,VALID,0,VALID,100,VALID,-0.0509425,VALID,19.7266,VALID,50,VALID,0.370313,
2005-05-07, 03:28:00,VALID,915.449,VALID,0,VALID,100,VALID,-0.0339617,VALID,19.7363,VALID,50,VALID,0.161914,
2005-05-07, 03:29:00,VALID,915.434,VALID,0,VALID,100,VALID,-0.0509425,VALID,19.736,VALID,50,VALID,0.202398,
2005-05-07, 03:30:00,VALID,915.421,VALID,0,VALID,100,VALID,-0.0849042,VALID,19.7462,VALID,50,VALID,0.0368823,
2005-05-07, 03:31:00,VALID,915.403,VALID,0,VALID,100,VALID,-0.0509425,VALID,19.7199,VALID,50,VALID,0.0738636,
2005-05-07, 03:32:00,VALID,915.403,VALID,0,VALID,100,VALID,-0.0339617,VALID,19.6836,VALID,50,VALID,0,
2005-05-07, 03:33:00,VALID,915.393,VALID,0,VALID,100,VALID,-0.0509425,VALID,19.6779,VALID,50,VALID,0,
2005-05-07, 03:34:00,VALID,915.389,VALID,0,VALID,100,VALID,-0.0509425,VALID,19.6583,VALID,50,VALID,0,
2005-05-07, 03:35:00,VALID,915.383,VALID,0,VALID,100,VALID,-0.0509425,VALID,19.662,VALID,50,VALID,0,
2005-05-07, 03:36:00,VALID,915.399,VALID,0,VALID,100,VALID,0.0679233,VALID,19.6409,VALID,50,VALID,0.189918,
2005-05-07, 03:37:00,VALID,915.404,VALID,0,VALID,100,VALID,0.0679233,VALID,19.6309,VALID,50,VALID,0.346289,
2005-05-07, 03:38:00,VALID,915.424,VALID,0,VALID,100,VALID,0.0339617,VALID,19.6121,VALID,50,VALID,0.483467,
2005-05-07, 03:39:00,VALID,915.459,VALID,0,VALID,100,VALID,0.0169808,VALID,19.6056,VALID,64,VALID,0.564453,
2005-05-07, 03:40:00,VALID,915.47,VALID,0,VALID,100,VALID,0,VALID,19.6155,VALID,91,VALID,0.642323,
2005-05-07, 03:41:00,VALID,915.498,VALID,0,VALID,100,VALID,0.0339617,VALID,19.622,VALID,93,VALID,0.523983,
2005-05-07, 03:42:00,VALID,915.499,VALID,0,VALID,100,VALID,0.0339617,VALID,19.6116,VALID,93,VALID,0.379573,